Overview Statistics Trail Chart Weather Telemetry Raw packets
 

This is the latest recevied weather packets stored in our database for station/object WX6HNX-6. If no packets are shown the sender has not sent any weather packets the latest 10 day(s).

<< 6 7 8 9 10 11 12 >>
Time Temp. Humidity Pressure Rain* Wind** Luminosity Snow
1777762804 33.89° C 17% 1008 hPa 0 mm - - -
1777762505 34.44° C 17% 1008.1 hPa 0 mm - - -
1777762204 33.89° C 16% 1008.1 hPa 0 mm - - -
1777761904 33.33° C 18% 1008.2 hPa 0 mm - - -
1777761604 33.33° C 20% 1008.3 hPa 0 mm - - -
1777761004 33.89° C 17% 1008.4 hPa 0 mm - - -
1777760705 34.44° C 17% 1008.6 hPa 0 mm - - -
1777760404 35° C 17% 1008.7 hPa 0 mm - - -
1777760105 34.44° C 15% 1008.7 hPa 0 mm - - -
1777759804 34.44° C 17% 1008.8 hPa 0 mm - - -
1777759205 32.22° C 18% 1009 hPa 0 mm - - -
1777758908 31.67° C 21% 1009 hPa 0 mm - - -
1777758305 33.89° C 20% 1009.1 hPa 0 mm - - -
1777758004 35° C 18% 1009.2 hPa 0 mm - - -
1777757704 35° C 16% 1009.2 hPa 0 mm - - -
1777757404 35° C 15% 1009.3 hPa 0 mm - - -
1777757104 35° C 16% 1009.4 hPa 0 mm - - -
1777756804 35° C 16% 1009.3 hPa 0 mm - - -
1777756505 34.44° C 16% 1009.4 hPa 0 mm - - -
1777756204 34.44° C 17% 1009.5 hPa 0 mm - - -
1777755904 34.44° C 16% 1009.5 hPa 0 mm - - -
1777755603 35° C 16% 1009.6 hPa 0 mm - - -
1777755304 35° C 16% 1009.6 hPa 0 mm - - -
1777755004 34.44° C 15% 1009.6 hPa 0 mm - - -
1777754703 34.44° C 17% 1009.7 hPa 0 mm - - -

* Rain latest hour (hover to see other rain measurements)
** Current wind speed in m/s (hover to see current wind gust speed)